[[{"header":{"parameterUnit":"m.s-1","parameterCategory":2,"la1":30.2992,"la2":30.254,"lo1":-89.0895,"lo2":-89.0443,"dy":0.0025,"dx":0.0025,"nx":19,"ny":19,"refTime":"2026-03-26T21:00:00:Z","depth":"0","parameterNumber":2,"parameterNumberName":"U-component_of_CURRENTS"},"data":[0,0,0,-0.1787,-0.1788,-0.181,-0.181,-0.1837,-0.1838,0,0,0,0,0,0,0,0,0,0,0,-0.1773,-0.1773,-0.1787,-0.1788,-0.181,-0.181,-0.1837,-0.1838,0,0,0,0,0,0,0,0,0,0,0,-0.1773,-0.1773,-0.1773,-0.1788,-0.181,-0.181,-0.1837,-0.182,0,0,0,0,0,0,0,0,0,0,-0.1797,-0.1781,-0.1773,-0.1773,-0.1788,-0.181,-0.181,-0.1819,-0.1821,-0.1828,0,-0.183,0,-0.1839,-0.184,-0.184,0,0,0,-0.1784,-0.1779,-0.1793,-0.1773,-0.1788,-0.181,-0.1799,-0.182,-0.1822,-0.183,-0.183,-0.1832,-0.184,-0.184,-0.184,-0.1892,-0.1892,0,0,-0.1782,-0.1771,-0.1791,-0.1794,-0.1793,-0.1798,-0.18,-0.1821,-0.1818,-0.183,-0.1832,-0.184,-0.184,-0.184,-0.1891,-0.1892,0,0,0,-0.1782,-0.177,-0.1783,-0.1793,-0.18,-0.1799,-0.1801,-0.1817,-0.1824,-0.1833,-0.184,-0.184,-0.1841,-0.1891,-0.1892,-0.1906,0,0,0,-0.1781,-0.177,-0.1782,-0.1774,-0.1799,-0.1808,-0.1796,-0.1822,-0.1825,-0.184,-0.184,-0.1841,-0.1891,-0.1891,-0.1905,-0.1911,0,0,0,-0.1772,-0.1769,-0.1773,-0.1774,-0.1787,-0.1808,-0.1815,-0.1823,-0.183,-0.184,-0.1841,-0.189,-0.1891,-0.1903,-0.1909,-0.1928,0,0,0,-0.1758,-0.1767,-0.1772,-0.1789,-0.1787,-0.1823,-0.1815,-0.1836,-0.1846,-0.1841,-0.1891,-0.1891,-0.1903,-0.1908,-0.1927,-0.1906,-0.1909,0,0,-0.1765,-0.1768,-0.1781,-0.1787,-0.1821,-0.182,-0.1856,-0.1861,-0.186,-0.1882,-0.1883,-0.1905,-0.1909,-0.1927,-0.1951,-0.1953,0,0,0,-0.1782,-0.1786,-0.18,-0.1818,-0.1846,-0.1868,-0.1877,-0.1884,-0.19,-0.1871,-0.1917,-0.1919,-0.193,-0.1916,-0.1918,-0.1931,-0.1895,-0.1895,-0.1895,-0.176,-0.1788,-0.1808,-0.1842,-0.1868,-0.1902,-0.192,-0.1931,-0.1926,-0.1937,-0.194,-0.1976,-0.1961,-0.1962,-0.1976,-0.195,-0.195,-0.195,-0.195,-0.1761,-0.1766,-0.1809,-0.1836,-0.1875,-0.1904,-0.1954,-0.1958,-0.1986,-0.1971,-0.1981,-0.1942,-0.1965,-0.1979,-0.1951,-0.1951,-0.1951,-0.1951,-0.1951,-0.1729,-0.1734,-0.1759,-0.1801,-0.1844,-0.1896,-0.1944,-0.1976,-0.1996,-0.2011,-0.1994,-0.1994,-0.1998,-0.2014,-0.2014,-0.2014,-0.2014,-0.2015,-0.2015,-0.1672,-0.1703,-0.1709,-0.1764,-0.1785,-0.1841,-0.1933,-0.197,-0.2008,-0.2013,-0.2013,-0.2016,-0.1995,-0.1983,-0.2016,-0.2016,-0.2016,-0.2016,-0.2016,-0.1607,-0.1628,-0.1634,-0.1652,-0.1713,-0.1743,-0.1866,-0.1954,-0.2006,-0.2017,-0.2033,-0.2016,-0.201,-0.2008,-0.1997,-0.2031,-0.2031,-0.2031,-0.2031,-0.1547,-0.1566,-0.1549,-0.156,-0.1605,-0.1685,-0.175,-0.187,-0.198,-0.2007,-0.2048,-0.2028,-0.2027,-0.2021,-0.2019,-0.2008,-0.2045,-0.2045,-0.2045,-0.1489,-0.1501,-0.1458,-0.1488,-0.1536,-0.1605,-0.1647,-0.1823,-0.1993,-0.2048,-0.2074,-0.2074,-0.2047,-0.2044,-0.2035,-0.203,-0.2012,0,0]},{"header":{"parameterUnit":"m.s-1","parameterCategory":2,"la1":30.2992,"la2":30.254,"lo1":-89.0895,"lo2":-89.0443,"dy":0.0025,"dx":0.0025,"nx":19,"ny":19,"refTime":"2026-03-26T21:00:00:Z","depth":"0","parameterNumber":3,"parameterNumberName":"V-component_of_CURRENTS"},"data":[0,0,0,-0.0374,-0.0374,-0.0338,-0.0337,-0.0278,-0.0278,0,0,0,0,0,0,0,0,0,0,0,-0.0385,-0.0385,-0.0374,-0.0373,-0.0338,-0.0337,-0.0278,-0.0278,0,0,0,0,0,0,0,0,0,0,0,-0.0386,-0.0385,-0.0385,-0.0373,-0.0338,-0.0337,-0.0278,-0.0307,0,0,0,0,0,0,0,0,0,0,-0.0342,-0.0361,-0.0385,-0.0385,-0.0373,-0.0338,-0.0337,-0.0308,-0.0305,-0.0293,0,-0.0292,0,-0.0287,-0.0274,-0.0274,0,0,0,-0.0365,-0.0364,-0.0353,-0.0385,-0.0373,-0.0338,-0.0352,-0.0306,-0.0303,-0.0289,-0.0291,-0.0289,-0.0286,-0.0274,-0.0274,-0.0246,-0.0246,0,0,-0.0367,-0.0378,-0.0355,-0.0351,-0.0369,-0.0353,-0.0351,-0.0304,-0.0304,-0.0291,-0.0288,-0.0285,-0.0273,-0.0273,-0.0246,-0.0246,0,0,0,-0.0378,-0.038,-0.037,-0.0353,-0.0349,-0.0352,-0.0349,-0.0306,-0.0302,-0.0287,-0.0284,-0.0273,-0.0272,-0.0246,-0.0246,-0.03,0,0,0,-0.0379,-0.0387,-0.0371,-0.0377,-0.0351,-0.033,-0.0352,-0.0305,-0.03,-0.0285,-0.0273,-0.0272,-0.0246,-0.0246,-0.0298,-0.033,0,0,0,-0.0386,-0.0387,-0.0385,-0.0377,-0.0365,-0.0331,-0.0324,-0.0304,-0.0298,-0.0274,-0.0272,-0.0246,-0.0246,-0.0297,-0.0327,-0.0324,0,0,0,-0.0396,-0.0412,-0.0385,-0.0403,-0.0366,-0.0364,-0.0324,-0.0316,-0.03,-0.0273,-0.0246,-0.0246,-0.0296,-0.0325,-0.0323,-0.0318,-0.0325,0,0,-0.0425,-0.0415,-0.0427,-0.0403,-0.0421,-0.0368,-0.0375,-0.0335,-0.0296,-0.0258,-0.0257,-0.0299,-0.0327,-0.0324,-0.0331,-0.0337,0,0,0,-0.0443,-0.0454,-0.0454,-0.0457,-0.0438,-0.0423,-0.0378,-0.0349,-0.0312,-0.0288,-0.0288,-0.0304,-0.03,-0.0294,-0.0299,-0.016,-0.0247,-0.0247,-0.0247,-0.0495,-0.049,-0.0517,-0.0508,-0.0499,-0.0457,-0.0435,-0.0385,-0.0345,-0.0333,-0.034,-0.0366,-0.036,-0.0363,-0.022,-0.0326,-0.0326,-0.0326,-0.0326,-0.0555,-0.0578,-0.0565,-0.0588,-0.056,-0.0552,-0.0488,-0.0451,-0.0405,-0.0373,-0.0367,-0.0342,-0.0372,-0.0217,-0.0329,-0.0329,-0.0328,-0.0328,-0.0328,-0.0598,-0.0611,-0.0618,-0.0645,-0.065,-0.0611,-0.0606,-0.0539,-0.0462,-0.0457,-0.0418,-0.0416,-0.0286,-0.0444,-0.0445,-0.0445,-0.0445,-0.0445,-0.0445,-0.064,-0.065,-0.0689,-0.0707,-0.0727,-0.0729,-0.067,-0.063,-0.0539,-0.0478,-0.0477,-0.0275,-0.0401,-0.0402,-0.0447,-0.0447,-0.0447,-0.0446,-0.0446,-0.07,-0.0698,-0.0762,-0.0791,-0.0837,-0.0871,-0.0804,-0.0705,-0.0631,-0.0581,-0.0313,-0.0472,-0.0449,-0.0444,-0.0445,-0.0499,-0.0499,-0.0499,-0.0499,-0.0735,-0.0741,-0.0827,-0.0888,-0.094,-0.0939,-0.0942,-0.0804,-0.05,-0.0335,-0.0256,-0.021,-0.0214,-0.0174,-0.0175,-0.0169,-0.0151,-0.015,-0.015,-0.0771,-0.0796,-0.0863,-0.0924,-0.0988,-0.1016,-0.1031,-0.0895,-0.041,-0.012,-0.0062,-0.0077,0.0007,-0.0011,0.0066,0.0053,0.0068,0,0]}],[{"header":{"parameterUnit":"m.s-1","parameterCategory":2,"la1":30.2992,"la2":30.254,"lo1":-89.0895,"lo2":-89.0443,"dy":0.0025,"dx":0.0025,"nx":19,"ny":19,"refTime":"2026-03-26T21:00:00:Z","depth":"2","parameterNumber":2,"parameterNumberName":"U-component_of_CURRENTS"},"data":[0,0,0,-0.1708,-0.1709,-0.1736,-0.1736,-0.1763,-0.1764,0,0,0,0,0,0,0,0,0,0,0,-0.1693,-0.1693,-0.1708,-0.1709,-0.1736,-0.1736,-0.1763,-0.1764,0,0,0,0,0,0,0,0,0,0,0,-0.1693,-0.1693,-0.1693,-0.1709,-0.1736,-0.1736,-0.1763,-0.1744,0,0,0,0,0,0,0,0,0,0,-0.1717,-0.1701,-0.1693,-0.1693,-0.1709,-0.1736,-0.1736,-0.1743,-0.1745,-0.175,0,-0.1754,0,-0.1764,-0.1766,-0.1766,0,0,0,-0.1705,-0.1699,-0.1714,-0.1693,-0.1709,-0.1736,-0.1722,-0.1744,-0.1746,-0.1753,-0.1754,-0.1755,-0.1764,-0.1766,-0.1766,-0.1816,-0.1816,0,0,-0.1703,-0.1692,-0.1712,-0.1715,-0.1716,-0.1722,-0.1723,-0.1745,-0.1743,-0.1754,-0.1756,-0.1765,-0.1766,-0.1766,-0.1816,-0.1816,0,0,0,-0.1701,-0.169,-0.1704,-0.1714,-0.1722,-0.1723,-0.1725,-0.1742,-0.1749,-0.1757,-0.1765,-0.1766,-0.1767,-0.1815,-0.1816,-0.1831,0,0,0,-0.17,-0.169,-0.1703,-0.1696,-0.1721,-0.1733,-0.1721,-0.1747,-0.175,-0.1765,-0.1766,-0.1767,-0.1815,-0.1816,-0.1829,-0.1835,0,0,0,-0.1692,-0.1689,-0.1694,-0.1695,-0.1711,-0.1733,-0.174,-0.1748,-0.1755,-0.1766,-0.1767,-0.1815,-0.1815,-0.1828,-0.1833,-0.185,0,0,0,-0.1677,-0.1687,-0.1693,-0.1711,-0.171,-0.1747,-0.174,-0.1762,-0.1772,-0.1766,-0.1815,-0.1816,-0.1828,-0.1832,-0.1849,-0.1815,-0.1817,0,0,-0.1685,-0.1688,-0.1702,-0.1708,-0.1742,-0.1743,-0.1779,-0.1786,-0.1786,-0.1806,-0.1807,-0.183,-0.1833,-0.185,-0.1859,-0.186,0,0,0,-0.1702,-0.1706,-0.172,-0.1739,-0.1767,-0.179,-0.1801,-0.1808,-0.1825,-0.1797,-0.1841,-0.1843,-0.1853,-0.1831,-0.1832,-0.1819,-0.1819,-0.1819,-0.1819,-0.1682,-0.1709,-0.1729,-0.1762,-0.1788,-0.1823,-0.1841,-0.1854,-0.185,-0.1862,-0.1864,-0.1898,-0.1875,-0.1875,-0.1874,-0.1874,-0.1874,-0.1874,-0.1875,-0.1683,-0.1688,-0.173,-0.1757,-0.1796,-0.1825,-0.1875,-0.188,-0.1908,-0.1895,-0.1904,-0.1858,-0.1877,-0.1876,-0.1876,-0.1875,-0.1875,-0.1875,-0.1875,-0.1652,-0.1657,-0.1683,-0.1724,-0.1767,-0.1819,-0.1863,-0.1897,-0.1918,-0.1932,-0.1907,-0.1906,-0.1902,-0.1936,-0.1936,-0.1936,-0.1936,-0.1936,-0.1936,-0.1598,-0.1628,-0.1635,-0.1689,-0.171,-0.1765,-0.1854,-0.1887,-0.192,-0.1923,-0.1923,-0.1919,-0.1917,-0.1906,-0.1938,-0.1938,-0.1937,-0.1937,-0.1937,-0.1536,-0.1557,-0.1562,-0.158,-0.1638,-0.1657,-0.1781,-0.1858,-0.1909,-0.1915,-0.192,-0.192,-0.1912,-0.191,-0.1899,-0.1928,-0.1928,-0.1928,-0.1928,-0.1479,-0.1497,-0.148,-0.149,-0.1529,-0.1596,-0.1623,-0.1683,-0.1775,-0.1769,-0.1776,-0.1741,-0.1746,-0.1726,-0.1729,-0.1712,-0.1693,-0.1692,-0.1691,-0.1423,-0.1434,-0.1392,-0.1419,-0.1461,-0.1506,-0.1482,-0.1475,-0.1546,-0.1678,-0.1689,-0.1921,-0.1887,-0.1887,-0.1871,-0.187,-0.1849,0,0]},{"header":{"parameterUnit":"m.s-1","parameterCategory":2,"la1":30.2992,"la2":30.254,"lo1":-89.0895,"lo2":-89.0443,"dy":0.0025,"dx":0.0025,"nx":19,"ny":19,"refTime":"2026-03-26T21:00:00:Z","depth":"2","parameterNumber":3,"parameterNumberName":"V-component_of_CURRENTS"},"data":[0,0,0,-0.0281,-0.0281,-0.0247,-0.0246,-0.0186,-0.0185,0,0,0,0,0,0,0,0,0,0,0,-0.0292,-0.0292,-0.0281,-0.0281,-0.0247,-0.0246,-0.0186,-0.0185,0,0,0,0,0,0,0,0,0,0,0,-0.0292,-0.0292,-0.0292,-0.0281,-0.0247,-0.0246,-0.0186,-0.0214,0,0,0,0,0,0,0,0,0,0,-0.0248,-0.0268,-0.0292,-0.0292,-0.0281,-0.0247,-0.0246,-0.0215,-0.0212,-0.0199,0,-0.0199,0,-0.0194,-0.0182,-0.0181,0,0,0,-0.0272,-0.0271,-0.0259,-0.0292,-0.028,-0.0247,-0.026,-0.0214,-0.021,-0.0195,-0.0198,-0.0196,-0.0193,-0.0181,-0.0181,-0.0154,-0.0154,0,0,-0.0274,-0.0285,-0.0262,-0.0257,-0.0278,-0.0261,-0.0259,-0.0212,-0.0211,-0.0198,-0.0195,-0.0192,-0.0181,-0.0181,-0.0154,-0.0154,0,0,0,-0.0285,-0.0287,-0.0277,-0.026,-0.0257,-0.026,-0.0258,-0.0213,-0.021,-0.0194,-0.0192,-0.0181,-0.018,-0.0154,-0.0154,-0.0209,0,0,0,-0.0286,-0.0294,-0.0278,-0.0284,-0.0258,-0.0238,-0.026,-0.0213,-0.0208,-0.0192,-0.0181,-0.0179,-0.0154,-0.0154,-0.0208,-0.0239,0,0,0,-0.0293,-0.0295,-0.0292,-0.0285,-0.0274,-0.0239,-0.0232,-0.0212,-0.0206,-0.0181,-0.0179,-0.0154,-0.0154,-0.0206,-0.0236,-0.0235,0,0,0,-0.0302,-0.0318,-0.0293,-0.0311,-0.0274,-0.0272,-0.0232,-0.0224,-0.0208,-0.018,-0.0154,-0.0154,-0.0206,-0.0234,-0.0233,-0.0231,-0.0238,0,0,-0.0331,-0.0322,-0.0334,-0.031,-0.0327,-0.0275,-0.0282,-0.0242,-0.0205,-0.0166,-0.0166,-0.0208,-0.0235,-0.0234,-0.0247,-0.0253,0,0,0,-0.0349,-0.036,-0.036,-0.0362,-0.0343,-0.0329,-0.0284,-0.0257,-0.0222,-0.0197,-0.0198,-0.0213,-0.0211,-0.0206,-0.0211,-0.0155,-0.0155,-0.0155,-0.0155,-0.0402,-0.0395,-0.0421,-0.0412,-0.0403,-0.0362,-0.0342,-0.0294,-0.0254,-0.0244,-0.0251,-0.0279,-0.0275,-0.0279,-0.0238,-0.0238,-0.0238,-0.0238,-0.0238,-0.046,-0.0482,-0.0469,-0.0491,-0.0464,-0.0457,-0.0396,-0.036,-0.0318,-0.0286,-0.0281,-0.0256,-0.0288,-0.0243,-0.0242,-0.0241,-0.0241,-0.024,-0.024,-0.0503,-0.0515,-0.0522,-0.0549,-0.0554,-0.0517,-0.0514,-0.045,-0.0376,-0.0372,-0.0335,-0.0334,-0.0311,-0.0361,-0.0361,-0.0361,-0.0361,-0.0361,-0.0361,-0.0546,-0.0555,-0.0594,-0.0611,-0.0631,-0.0635,-0.0579,-0.0541,-0.0455,-0.0396,-0.0395,-0.032,-0.0316,-0.0317,-0.0364,-0.0363,-0.0363,-0.0363,-0.0363,-0.0606,-0.0604,-0.0668,-0.0696,-0.0742,-0.0773,-0.0713,-0.062,-0.0549,-0.0501,-0.0394,-0.0392,-0.0369,-0.0364,-0.0365,-0.0422,-0.0422,-0.0422,-0.0422,-0.0642,-0.0647,-0.0734,-0.0794,-0.0845,-0.084,-0.0838,-0.0698,-0.0526,-0.043,-0.043,-0.0408,-0.0406,-0.0383,-0.0377,-0.0377,-0.0437,-0.0437,-0.0437,-0.0679,-0.0704,-0.0772,-0.083,-0.0893,-0.0914,-0.0913,-0.0745,-0.0489,-0.0437,-0.0431,-0.0423,-0.0389,-0.0386,-0.0346,-0.0339,-0.0336,0,0]}],[{"header":{"parameterUnit":"m.s-1","parameterCategory":2,"la1":30.2992,"la2":30.254,"lo1":-89.0895,"lo2":-89.0443,"dy":0.0025,"dx":0.0025,"nx":19,"ny":19,"refTime":"2026-03-26T21:00:00:Z","depth":"4","parameterNumber":2,"parameterNumberName":"U-component_of_CURRENTS"},"data":[0,0,0,-0.1274,-0.1276,-0.1384,-0.1384,-0.1464,-0.1464,0,0,0,0,0,0,0,0,0,0,0,-0.1239,-0.124,-0.1273,-0.1276,-0.1384,-0.1384,-0.1464,-0.1464,0,0,0,0,0,0,0,0,0,0,0,-0.1239,-0.124,-0.1241,-0.1277,-0.1383,-0.1384,-0.1464,-0.1397,0,0,0,0,0,0,0,0,0,0,-0.13,-0.1277,-0.124,-0.1241,-0.1277,-0.1383,-0.1384,-0.1394,-0.1401,-0.1398,0,-0.1422,0,-0.1443,-0.1468,-0.1468,0,0,0,-0.1277,-0.1272,-0.1299,-0.1241,-0.1278,-0.1383,-0.1335,-0.1398,-0.1406,-0.1407,-0.1423,-0.1427,-0.1444,-0.1469,-0.1469,-0.1545,-0.1546,0,0,-0.1271,-0.1258,-0.1294,-0.1304,-0.1314,-0.1332,-0.1339,-0.1404,-0.1414,-0.1424,-0.1429,-0.1446,-0.1469,-0.1469,-0.1545,-0.1545,0,0,0,-0.1253,-0.1254,-0.1281,-0.13,-0.1324,-0.1335,-0.1343,-0.1411,-0.1421,-0.143,-0.1446,-0.1469,-0.147,-0.1545,-0.1545,-0.1563,0,0,0,-0.125,-0.1244,-0.1279,-0.1272,-0.1323,-0.1377,-0.1349,-0.1416,-0.1424,-0.1446,-0.1469,-0.1471,-0.1544,-0.1545,-0.1561,-0.1562,0,0,0,-0.1233,-0.1242,-0.1257,-0.1271,-0.1317,-0.1377,-0.1391,-0.1419,-0.1434,-0.1469,-0.1471,-0.1544,-0.1545,-0.156,-0.156,-0.1571,0,0,0,-0.1212,-0.1237,-0.1257,-0.1295,-0.1316,-0.1384,-0.139,-0.1446,-0.1479,-0.147,-0.1544,-0.1545,-0.156,-0.1559,-0.157,-0.1393,0,0,0,-0.1228,-0.1239,-0.1262,-0.1282,-0.1341,-0.1369,-0.1433,-0.1477,-0.1489,-0.1517,-0.152,-0.1562,-0.156,-0.157,-0.145,0,0,0,0,-0.1256,-0.1272,-0.1295,-0.1337,-0.1386,-0.1435,-0.1482,-0.1503,-0.1548,-0.1514,-0.1576,-0.1574,-0.158,-0.1475,-0.155,-0.155,-0.1549,-0.1549,-0.1549,-0.1245,-0.128,-0.132,-0.137,-0.1418,-0.1487,-0.1525,-0.156,-0.1571,-0.1596,-0.16,-0.1633,-0.1525,-0.1616,-0.1616,-0.1616,-0.1616,-0.1616,-0.1616,-0.1252,-0.1266,-0.1329,-0.1381,-0.1442,-0.15,-0.1569,-0.159,-0.1634,-0.1633,-0.1638,-0.1515,-0.1618,-0.1618,-0.1617,-0.1617,-0.1617,-0.1617,-0.1617,-0.1219,-0.1229,-0.1282,-0.1356,-0.143,-0.1506,-0.1553,-0.1611,-0.1645,-0.166,-0.1548,-0.1645,-0.1631,-0.1667,-0.1667,-0.1667,-0.1667,-0.1667,-0.1667,-0.1151,-0.1203,-0.1239,-0.1328,-0.1373,-0.1444,-0.1548,-0.157,-0.1624,-0.1547,-0.1667,-0.165,-0.1649,-0.1634,-0.1668,-0.1668,-0.1668,-0.1668,-0.1668,-0.1086,-0.1124,-0.1159,-0.1206,-0.1296,-0.1333,-0.1464,-0.1473,-0.1483,-0.1447,-0.1483,-0.1492,-0.1466,-0.1469,-0.1447,-0.1427,-0.1424,-0.1422,0,-0.1028,-0.1054,-0.1082,-0.1117,-0.115,-0.1254,-0.1234,-0.1289,-0.1334,-0.1288,-0.1476,-0.1516,-0.1521,-0.1492,-0.1491,-0.1465,0,0,0,-0.0979,-0.0997,-0.0986,-0.1039,-0.1069,-0.1111,-0.1215,-0.1188,-0.1332,-0.1298,-0.1368,-0.1382,-0.1571,-0.1671,-0.1653,-0.1651,-0.1627,0,0]},{"header":{"parameterUnit":"m.s-1","parameterCategory":2,"la1":30.2992,"la2":30.254,"lo1":-89.0895,"lo2":-89.0443,"dy":0.0025,"dx":0.0025,"nx":19,"ny":19,"refTime":"2026-03-26T21:00:00:Z","depth":"4","parameterNumber":3,"parameterNumberName":"V-component_of_CURRENTS"},"data":[0,0,0,-0.0118,-0.0118,-0.01,-0.01,-0.0057,-0.0057,0,0,0,0,0,0,0,0,0,0,0,-0.0124,-0.0124,-0.0118,-0.0118,-0.01,-0.01,-0.0057,-0.0057,0,0,0,0,0,0,0,0,0,0,0,-0.0124,-0.0124,-0.0124,-0.0118,-0.01,-0.01,-0.0057,-0.0074,0,0,0,0,0,0,0,0,0,0,-0.0093,-0.0107,-0.0124,-0.0124,-0.0118,-0.01,-0.01,-0.0075,-0.0073,-0.0061,0,-0.0064,0,-0.0062,-0.0054,-0.0054,0,0,0,-0.0111,-0.0109,-0.0102,-0.0124,-0.0118,-0.0101,-0.0106,-0.0074,-0.0072,-0.0059,-0.0063,-0.0062,-0.0061,-0.0054,-0.0054,-0.0044,-0.0044,0,0,-0.0112,-0.012,-0.0104,-0.0101,-0.0119,-0.0107,-0.0106,-0.0073,-0.0074,-0.0063,-0.0061,-0.0061,-0.0054,-0.0053,-0.0044,-0.0044,0,0,0,-0.0119,-0.0121,-0.0115,-0.0103,-0.0103,-0.0107,-0.0105,-0.0075,-0.0073,-0.006,-0.006,-0.0053,-0.0053,-0.0044,-0.0044,-0.0096,0,0,0,-0.012,-0.0126,-0.0116,-0.0121,-0.0104,-0.0093,-0.0109,-0.0075,-0.0071,-0.006,-0.0053,-0.0052,-0.0043,-0.0044,-0.0094,-0.0122,0,0,0,-0.0124,-0.0126,-0.0126,-0.0121,-0.0116,-0.0093,-0.0089,-0.0074,-0.0071,-0.0054,-0.0052,-0.0043,-0.0044,-0.0093,-0.0119,-0.0124,0,0,0,-0.013,-0.0144,-0.0126,-0.0144,-0.0117,-0.0123,-0.0089,-0.0088,-0.0078,-0.0053,-0.0043,-0.0044,-0.0092,-0.0117,-0.0123,-0.0135,0,0,0,-0.0154,-0.0148,-0.0159,-0.0143,-0.0163,-0.0124,-0.0139,-0.011,-0.0079,-0.0051,-0.0051,-0.0095,-0.0119,-0.0124,-0.0162,0,0,0,0,-0.0171,-0.0181,-0.0184,-0.0191,-0.0182,-0.0179,-0.0147,-0.0128,-0.0106,-0.0076,-0.009,-0.0103,-0.0105,-0.0106,-0.0046,-0.0046,-0.0046,-0.0046,-0.0046,-0.0212,-0.0211,-0.0238,-0.0237,-0.0237,-0.0215,-0.0205,-0.0172,-0.0138,-0.0136,-0.0142,-0.0178,-0.0182,-0.0134,-0.0134,-0.0134,-0.0134,-0.0134,-0.0135,-0.0258,-0.0277,-0.0279,-0.0304,-0.0295,-0.03,-0.0262,-0.0236,-0.0212,-0.0182,-0.018,-0.0157,-0.014,-0.0139,-0.0138,-0.0137,-0.0137,-0.0137,-0.0136,-0.0286,-0.0297,-0.0313,-0.035,-0.0371,-0.0355,-0.0366,-0.0322,-0.0265,-0.0266,-0.0245,-0.0207,-0.0206,-0.0259,-0.026,-0.026,-0.026,-0.026,-0.026,-0.0307,-0.0325,-0.0367,-0.0399,-0.0429,-0.0449,-0.0424,-0.04,-0.0339,-0.0308,-0.0279,-0.0219,-0.0215,-0.0212,-0.0263,-0.0262,-0.0262,-0.0262,-0.0261,-0.0341,-0.0349,-0.0414,-0.0452,-0.0518,-0.0528,-0.0508,-0.0445,-0.0419,-0.0373,-0.0318,-0.0314,-0.0292,-0.0286,-0.0285,-0.0359,-0.0359,-0.0359,0,-0.036,-0.037,-0.0459,-0.0527,-0.0581,-0.0576,-0.0555,-0.0511,-0.0424,-0.0424,-0.0411,-0.0352,-0.0347,-0.0325,-0.032,-0.0321,0,0,0,-0.0384,-0.041,-0.0476,-0.0545,-0.0609,-0.0574,-0.0548,-0.0523,-0.0442,-0.0404,-0.0368,-0.0366,-0.0319,-0.027,-0.0227,-0.0223,-0.0215,0,0]}]]